This is the latest recevied weather packets stored in our database for station/object W5COG. If no packets are shown the sender has not sent any weather packets the latest 10 day(s).
| Time | Temp. | Humidity | Pressure | Rain* | Wind** | Luminosity | Snow |
|---|---|---|---|---|---|---|---|
| 1778347229 | 25° C | 64% | 1011.5 hPa | 0 mm | - | 869 W/m² | - |
| 1778346929 | 25° C | 64% | 1011.6 hPa | 0 mm | - | 864 W/m² | - |
| 1778346629 | 25° C | 66% | 1011.6 hPa | 0 mm | - | 863 W/m² | - |
| 1778346329 | 25° C | 66% | 1011.7 hPa | 0 mm | - | 859 W/m² | - |
| 1778346029 | 24.44° C | 68% | 1011.6 hPa | 0 mm | - | 854 W/m² | - |
| 1778345731 | 24.44° C | 66% | 1011.5 hPa | 0 mm | - | 850 W/m² | - |
| 1778345429 | 23.89° C | 69% | 1011.5 hPa | 0 mm | - | 842 W/m² | - |
| 1778345129 | 23.33° C | 68% | 1011.5 hPa | 0 mm | - | 836 W/m² | - |
| 1778344829 | 23.33° C | 71% | 1011.5 hPa | 0 mm | - | 830 W/m² | - |
| 1778344529 | 22.78° C | 70% | 1011.4 hPa | 0 mm | - | 822 W/m² | - |
| 1778344229 | 22.78° C | 70% | 1011.5 hPa | 0 mm | - | 816 W/m² | - |
| 1778343929 | 22.78° C | 68% | 1011.5 hPa | 0 mm | - | 810 W/m² | - |
| 1778343629 | 22.78° C | 72% | 1011.4 hPa | 0 mm | - | 802 W/m² | - |
| 1778343329 | 22.78° C | 72% | 1011.3 hPa | 0 mm | - | 792 W/m² | - |
| 1778343029 | 22.78° C | 73% | 1011.3 hPa | 0 mm | - | 783 W/m² | - |
| 1778342729 | 22.22° C | 75% | 1011.3 hPa | 0 mm | - | 774 W/m² | - |
| 1778342431 | 21.67° C | 75% | 1011.3 hPa | 0 mm | - | 764 W/m² | - |
| 1778342129 | 21.11° C | 75% | 1011.3 hPa | 0 mm | - | 753 W/m² | - |
| 1778341833 | 21.67° C | 74% | 1011.3 hPa | 0 mm | - | 742 W/m² | - |
| 1778341529 | 21.11° C | 78% | 1011.3 hPa | 0 mm | - | 730 W/m² | - |
| 1778341229 | 21.11° C | 77% | 1011.3 hPa | 0 mm | - | 719 W/m² | - |
| 1778340929 | 20.56° C | 80% | 1011.2 hPa | 0 mm | - | 708 W/m² | - |
| 1778340629 | 20.56° C | 78% | 1011.2 hPa | 0 mm | - | 696 W/m² | - |
| 1778340329 | 20° C | 80% | 1011.2 hPa | 0 mm | - | 684 W/m² | - |
| 1778340029 | 20° C | 81% | 1011.3 hPa | 0 mm | - | 671 W/m² | - |
* Rain latest hour (hover to see other rain measurements)
** Current wind speed in m/s (hover to see current wind gust speed)